Погода в Эраке

Иран     34°05′34″N   49°42′53″E
темп.,
°C
ветер,
м/с
пор.,
м/с
влажн.,
%
обл.,
%
осадки,
мм/ч
давл.,
гПа
погр.,
м
25 октября, пн
пн2500:30+8юз11280 0.0 101710
03:30+6юз11300 0.0 101710
06:30+5юз21330 0.0 101810
09:30+12юз11200 0.0 1018600
12:30+16ссз12120 0.0 10151370
15:30+18ссв1390 0.0 10131819
18:30+12ю11160 0.0 101510
21:30+11юз11200 0.0 101610
26 октября, вт
вт2600:30+9зюз11280 0.0 101710
03:30+7юз11340 0.0 101710
06:30+6з11390 0.0 101910
09:30+13в12230 0.0 1018621
12:30+16ссв23160 0.0 10151891
15:30+16св43180 0.0 1015880
18:30+11ссв22330 0.0 101818
21:30+8сз11390 0.0 102011
27 октября, ср
ср2700:30+7сз11420 0.0 102010
03:30+6с11450 0.0 102110
06:30+4с11550 0.0 102310
09:30+10ссв11400 0.0 1023492
12:30+14ссв22260 0.0 10191337
15:30+15ссв32245 0.0 1018981
18:30+10ссв22395 0.0 102058
21:30+8с11505 0.0 102211
28 октября, чт
чт2800:30+6с01545 0.0 102210
03:30+5юв115673 0.0 102111
06:30+5ю225671 0.0 102214
09:30+11вюв123351 0.0 1021487
12:30+16ссз251997 0.0 10181886
15:30+17сз252096 0.0 10162090
18:30+13ююв023682 0.0 1019177
21:30+10ююв114562 0.1 102010
29 октября, пт
пт2900:30+9юз115834 0.1 102010
03:30+7вюв116178 0.2 102111
06:30+7ююв225765 0.0 102118
09:30+14ююв24343 0.0 1021740
12:30+15ююз10941100 0.0 10191154
15:30+13зсз5447100 0.1 1021953
18:30+10сз2267100 0.5 1024365
21:30+9ю2479100 3.9 1025413